N1OTX Weather Reports


time (UTC)temp
C
wind
direction
speed
KPH
gust
KPH
rain 1hr
cm
rain 24hr
cm
rain mn
cm
humidity
%
barometer
mb
20260903081020 18 132 4.8 12.9 0.00 0.00 0.00 80 1015.8
20260903080522 18 142 1.6 9.7 0.00 0.00 0.00 80 1015.9
20260903080022 18 182 3.2 11.3 0.00 0.00 0.00 79 1015.8
20260903075522 18 128 4.8 11.3 0.00 0.00 0.00 79 1015.8
20260903075021 18 123 3.2 9.7 0.00 0.00 0.00 79 1016.0
20260903074521 18 130 3.2 9.7 0.00 0.00 0.00 79 1016.0
20260903074021 18 129 4.8 9.7 0.00 0.00 0.00 79 1016.0
20260903073541 18 139 1.6 9.7 0.00 0.00 0.00 79 1016.0
20260903073021 18 136 3.2 9.7 0.00 0.00 0.00 79 1016.0
20260903072520 18 135 4.8 11.3 0.00 0.00 0.00 78 1016.0
20260903072022 18 133 4.8 14.5 0.00 0.00 0.00 78 1016.2
20260903071520 18 142 3.2 9.7 0.00 0.00 0.00 79 1016.3
20260903071021 18 129 3.2 9.7 0.00 0.00 0.00 79 1016.5
20260903070521 18 142 3.2 6.4 0.00 0.00 0.00 79 1016.5
20260903070021 18 135 1.6 4.8 0.00 0.00 0.00 79 1016.6
20260903065521 18 126 3.2 4.8 0.00 0.00 0.00 79 1016.7
20260903065020 18 151 1.6 4.8 0.00 0.00 0.00 79 1016.9
20260903064520 18 170 0.0 3.2 0.00 0.00 0.00 79 1017.0
20260903064020 18 169 0.0 3.2 0.00 0.00 0.00 79 1017.2
20260903063520 18 204 1.6 3.2 0.00 0.00 0.00 78 1017.3
20260903063044 18 209 1.6 3.2 0.00 0.00 0.00 78 1017.4
20260903062521 18 197 1.6 4.8 0.00 0.00 0.00 78 1017.4
20260903062021 18 133 1.6 4.8 0.00 0.00 0.00 78 1017.4
20260903061521 18 134 1.6 11.3 0.00 0.00 0.00 78 1017.4
20260903061020 18 155 3.2 11.3 0.00 0.00 0.00 78 1017.7
20260903060520 18 146 3.2 11.3 0.00 0.00 0.00 78 1017.7
20260903060022 18 148 3.2 11.3 0.00 0.00 0.00 78 1017.8
20260903055522 18 127 3.2 9.7 0.00 0.00 0.00 78 1018.0
20260903055021 18 147 3.2 9.7 0.00 0.00 0.00 78 1018.2
20260903054521 18 142 3.2 9.7 0.00 0.00 0.00 78 1018.3
20260903054021 18 167 1.6 11.3 0.00 0.00 0.00 78 1018.4
20260903053521 18 130 3.2 6.4 0.00 0.00 0.00 78 1018.3
20260903053021 18 151 3.2 9.7 0.00 0.00 0.00 79 1018.2
20260903052520 18 128 1.6 9.7 0.00 0.00 0.00 79 1018.2
20260903052020 18 152 3.2 11.3 0.00 0.00 0.00 79 1018.2
20260903051522 18 161 4.8 11.3 0.00 0.00 0.00 79 1018.2
20260903051042 18 132 3.2 14.5 0.00 0.00 0.00 80 1018.2
20260903050541 18 134 4.8 11.3 0.00 0.00 0.00 81 1018.4
20260903045521 18 176 1.6 6.4 0.00 0.00 0.00 81 1018.8
20260903045021 18 219 1.6 6.4 0.00 0.00 0.00 82 1018.7
20260903044601 18 211 1.6 4.8 0.00 0.00 0.00 81 1018.5
20260903044020 18 163 1.6 6.4 0.00 0.00 0.00 81 1018.5
20260903043540 18 175 1.6 6.4 0.00 0.00 0.00 81 1018.5
20260903043020 18 124 1.6 9.7 0.00 0.00 0.00 81 1018.5
20260903042521 18 132 4.8 11.3 0.00 0.00 0.00 81 1018.6
20260903042041 18 129 1.6 4.8 0.00 0.00 0.00 81 1018.5
20260903041521 18 142 1.6 3.2 0.00 0.00 0.00 81 1018.7
20260903041021 18 143 3.2 11.3 0.00 0.00 0.00 81 1018.7
20260903040521 18 159 1.6 6.4 0.00 0.00 0.00 81 1018.7
20260903040020 18 154 1.6 4.8 0.00 0.00 0.00 82 1018.6
20260903035520 18 144 1.6 4.8 0.00 0.00 0.00 81 1018.4
20260903035040 18 125 1.6 6.4 0.00 0.00 0.00 81 1018.6
20260903034519 18 119 0.0 3.2 0.00 0.00 0.00 81 1018.6
20260903034019 18 128 1.6 6.4 0.00 0.00 0.00 81 1018.7
20260903033521 18 146 3.2 11.3 0.00 0.00 0.00 81 1018.7
20260903033021 18 141 3.2 11.3 0.00 0.00 0.00 81 1018.9
20260903032521 18 181 3.2 6.4 0.00 0.00 0.00 81 1019.1
20260903032040 18 121 1.6 4.8 0.00 0.00 0.00 82 1019.0
20260903031520 18 177 1.6 6.4 0.00 0.00 0.00 82 1019.1
20260903031020 18 115 1.6 6.4 0.00 0.00 0.00 82 1019.2
20260903030520 18 186 1.6 4.8 0.00 0.00 0.00 82 1019.2
20260903030020 18 147 1.6 4.8 0.00 0.00 0.00 82 1019.2
20260903025521 18 189 0.0 3.2 0.00 0.00 0.00 82 1019.4
20260903025041 18 178 1.6 4.8 0.00 0.00 0.00 82 1019.5
20260903024521 18 161 3.2 6.4 0.00 0.00 0.00 82 1019.5
20260903024021 18 172 1.6 4.8 0.00 0.00 0.00 82 1019.4
20260903023520 18 135 0.0 1.6 0.00 0.00 0.00 82 1019.4
20260903023020 18 0.0 1.6 0.00 0.00 0.00 81 1019.4
20260903022520 18 136 0.0 1.6 0.00 0.00 0.00 81 1019.4
20260903022020 18 141 1.6 4.8 0.00 0.00 0.00 81 1019.5
20260903021521 18 135 1.6 4.8 0.00 0.00 0.00 81 1019.3
20260903021046 18 134 4.8 11.3 0.00 0.00 0.00 81 1019.5
20260903020521 18 125 3.2 11.3 0.00 0.00 0.00 81 1019.5
20260903020101 18 129 1.6 9.7 0.00 0.00 0.00 81 1019.7
20260903015521 18 176 1.6 9.7 0.00 0.00 0.00 82 1019.6
20260903015040 18 166 1.6 9.7 0.00 0.00 0.00 82 1019.4
20260903014602 18 143 3.2 4.8 0.00 0.00 0.00 82 1019.5
20260903014022 18 129 1.6 4.8 0.00 0.00 0.00 82 1019.5
20260903013521 18 132 1.6 4.8 0.00 0.00 0.00 83 1019.3
20260903013041 18 127 3.2 9.7 0.00 0.00 0.00 82 1019.2
20260903012521 18 137 3.2 9.7 0.00 0.00 0.00 82 1019.4
20260903012041 18 138 1.6 4.8 0.00 0.00 0.00 83 1019.4
20260903011521 18 151 1.6 9.7 0.00 0.00 0.00 82 1019.5
20260903011020 18 134 3.2 9.7 0.00 0.00 0.00 82 1019.6
20260903010520 18 123 4.8 9.7 0.00 0.00 0.00 82 1019.4
20260903010022 18 131 4.8 11.3 0.00 0.00 0.00 82 1019.6
20260903005521 18 130 3.2 12.9 0.00 0.00 0.00 82 1019.6
20260903005021 18 125 3.2 16.1 0.00 0.00 0.00 82 1019.8
20260903004521 18 125 4.8 16.1 0.00 0.00 0.00 82 1019.5
20260903004041 18 138 8.0 14.5 0.00 0.00 0.00 82 1019.5
20260903003525 18 127 3.2 9.7 0.00 0.00 0.00 82 1019.6
20260903003024 18 137 4.8 11.3 0.00 0.00 0.00 81 1019.5
20260903002522 18 129 3.2 12.9 0.00 0.00 0.00 81 1019.6
20260903002021 18 124 4.8 12.9 0.00 0.00 0.00 80 1019.7
20260903001521 18 133 4.8 11.3 0.00 0.00 0.00 80 1019.8
20260903001021 18 119 4.8 14.5 0.00 0.00 0.00 79 1020.0
20260903000520 18 136 3.2 9.7 0.00 0.00 0.00 79 1020.0
20260903000021 18 125 3.2 6.4 0.00 0.00 0.00 79 1020.1
20260902235520 18 137 3.2 6.4 0.00 0.00 0.00 79 1020.2
20260902235042 18 131 1.6 4.8 0.00 0.00 0.00 79 1020.3
20260902234523 18 112 3.2 9.7 0.00 0.00 0.00 80 1020.2
20260902234022 18 144 1.6 9.7 0.00 0.00 0.00 80 1020.2
20260902233521 18 127 1.6 4.8 0.00 0.00 0.00 79 1020.3
20260902233021 18 140 3.2 9.7 0.00 0.00 0.00 79 1020.3
20260902232521 18 136 4.8 11.3 0.00 0.00 0.00 79 1020.4
20260902232021 18 119 4.8 11.3 0.00 0.00 0.00 79 1020.4
20260902231520 19 110 1.6 4.8 0.00 0.00 0.00 78 1020.3
20260902231020 19 115 4.8 11.3 0.00 0.00 0.00 78 1020.3
20260902230525 19 106 4.8 9.7 0.00 0.00 0.00 77 1020.5
20260902230022 19 102 4.8 11.3 0.00 0.00 0.00 76 1020.4
20260902225522 19 97 4.8 11.3 0.00 0.00 0.00 75 1020.4
20260902225021 19 92 4.8 16.1 0.00 0.00 0.00 74 1020.5
20260902224521 20 111 6.4 16.1 0.00 0.00 0.00 73 1020.4
20260902224020 20 124 6.4 16.1 0.00 0.00 0.00 72 1020.6
20260902223521 20 136 4.8 12.9 0.00 0.00 0.00 72 1020.8
20260902223024 20 113 6.4 14.5 0.00 0.00 0.00 72 1020.8
20260902222523 20 132 6.4 14.5 0.00 0.00 0.00 72 1020.8
20260902222042 20 133 4.8 14.5 0.00 0.00 0.00 72 1020.8
20260902221521 20 110 6.4 12.9 0.00 0.00 0.00 72 1020.6
20260902221021 20 114 4.8 17.7 0.00 0.00 0.00 72 1020.6
20260902220521 20 105 6.4 17.7 0.00 0.00 0.00 71 1020.6
20260902220020 20 112 4.8 14.5 0.00 0.00 0.00 71 1020.6
20260902215520 20 119 9.7 17.7 0.00 0.00 0.00 70 1020.5
20260902215040 20 110 6.4 16.1 0.00 0.00 0.00 71 1020.5
20260902214522 20 96 6.4 14.5 0.00 0.00 0.00 72 1020.5
20260902214022 20 102 6.4 16.1 0.00 0.00 0.00 71 1020.3
20260902213602 20 108 6.4 17.7 0.00 0.00 0.00 70 1020.3
20260902213021 20 109 8.0 17.7 0.00 0.00 0.00 70 1020.1
20260902212521 21 121 9.7 33.8 0.00 0.00 0.00 69 1020.1
20260902212021 21 110 9.7 33.8 0.00 0.00 0.00 70 1020.0
20260902211520 21 126 8.0 24.1 0.00 0.00 0.00 69 1020.1
20260902211020 21 106 6.4 16.1 0.00 0.00 0.00 70 1020.1
20260902210522 21 109 4.8 16.1 0.00 0.00 0.00 70 1020.3
20260902210021 21 83 9.7 17.7 0.00 0.00 0.00 69 1020.3
20260902205522 21 92 9.7 20.9 0.00 0.00 0.00 69 1020.4
20260902205021 21 113 9.7 24.1 0.00 0.00 0.00 70 1020.5
20260902204602 21 114 8.0 24.1 0.00 0.03 0.00 71 1020.7
20260902204021 21 104 8.0 16.1 0.00 0.03 0.00 71 1020.7
20260902203520 21 132 8.0 17.7 0.00 0.03 0.00 70 1020.8
20260902203040 21 108 6.4 17.7 0.00 0.03 0.00 70 1020.9
20260902202520 21 92 8.0 17.7 0.00 0.03 0.00 70 1020.9
20260902202022 21 85 8.0 22.5 0.00 0.05 0.00 68 1021.0
20260902201540 21 106 8.0 20.9 0.00 0.05 0.00 69 1021.1
20260902201021 21 97 9.7 17.7 0.00 0.05 0.00 69 1021.0
20260902200521 21 104 8.0 16.1 0.00 0.05 0.00 70 1021.1
20260902200020 21 97 4.8 14.5 0.00 0.05 0.00 69 1021.0
20260902195521 21 95 6.4 14.5 0.00 0.05 0.00 68 1020.9
20260902195020 21 96 8.0 17.7 0.00 0.05 0.00 66 1021.0
20260902194520 21 88 6.4 17.7 0.00 0.05 0.00 66 1021.0
20260902194020 21 120 6.4 17.7 0.00 0.05 0.00 65 1021.0
20260902193541 21 106 6.4 17.7 0.00 0.08 0.00 63 1021.1
20260902193026 21 111 6.4 17.7 0.00 0.10 0.00 63 1021.0
20260902192521 21 104 8.0 17.7 0.00 0.10 0.00 62 1021.0
20260902192021 22 100 8.0 17.7 0.00 0.13 0.00 62 1021.0
20260902191545 22 86 8.0 20.9 0.00 0.13 0.00 59 1021.2
20260902191020 22 110 6.4 17.7 0.00 0.15 0.00 60 1021.3
20260902190522 22 135 6.4 16.1 0.00 0.18 0.00 59 1021.3
20260902190021 22 100 6.4 14.5 0.00 0.20 0.00 59 1021.3
20260902185521 22 101 6.4 20.9 0.00 0.28 0.00 58 1021.3
20260902185021 22 87 8.0 16.1 0.00 0.36 0.00 57 1021.2
20260902184521 22 85 6.4 14.5 0.00 0.41 0.00 58 1021.1
20260902184021 22 84 6.4 20.9 0.00 0.46 0.00 60 1021.2
20260902183520 22 92 6.4 20.9 0.00 0.48 0.00 59 1021.1
20260902183044 22 131 9.7 17.7 0.00 0.51 0.00 56 1021.0
20260902182520 22 134 6.4 17.7 0.00 0.53 0.00 58 1021.1
20260902182020 22 91 6.4 17.7 0.00 0.56 0.00 59 1021.1
20260902181520 22 113 8.0 17.7 0.00 0.58 0.00 58 1021.2
20260902181022 22 88 9.7 22.5 0.00 0.64 0.00 58 1021.1
20260902180522 22 92 8.0 22.5 0.00 0.71 0.00 56 1021.1
20260902180021 22 104 11.3 24.1 0.00 0.74 0.00 57 1021.2
20260902175521 22 120 6.4 17.7 0.00 0.79 0.00 58 1021.2
20260902175021 22 91 6.4 14.5 0.00 0.86 0.00 59 1021.2
20260902174521 22 104 8.0 20.9 0.00 0.94 0.00 59 1021.3
20260902174021 22 102 9.7 22.5 0.00 0.99 0.00 57 1021.3
20260902173520 22 89 9.7 20.9 0.00 1.04 0.00 59 1021.2
20260902173022 23 117 6.4 12.9 0.00 1.07 0.00 57 1021.2
20260902172522 23 127 4.8 11.3 0.00 1.09 0.00 60 1021.2
20260902172021 23 114 4.8 12.9 0.00 1.09 0.00 60 1021.3
20260902171519 23 119 8.0 17.7 0.00 1.12 0.00 59 1021.4
20260902171021 23 161 6.4 14.5 0.00 1.14 0.00 58 1021.4
20260902170521 23 126 8.0 20.9 0.00 1.19 0.00 59 1021.4
20260902170040 23 137 6.4 16.1 0.00 1.22 0.00 63 1021.5
20260902165520 22 140 6.4 17.7 0.00 1.22 0.00 63 1021.6
20260902165020 22 102 8.0 17.7 0.00 1.22 0.00 63 1021.6
20260902164522 22 93 3.2 17.7 0.00 1.22 0.00 64 1021.6
20260902164042 22 81 6.4 16.1 0.00 1.22 0.00 68 1021.6
20260902163541 22 102 6.4 16.1 0.00 1.22 0.00 65 1021.8
20260902163021 22 103 4.8 14.5 0.00 1.22 0.00 67 1021.7
20260902162521 22 95 4.8 12.9 0.00 1.22 0.00 67 1021.7
20260902162021 22 101 6.4 16.1 0.00 1.22 0.00 68 1021.8
20260902161520 22 136 4.8 11.3 0.00 1.22 0.00 69 1021.7
20260902161040 22 150 6.4 14.5 0.00 1.22 0.00 68 1021.8
20260902160605 22 143 8.0 14.5 0.00 1.22 0.00 68 1021.8
20260902160020 21 137 8.0 14.5 0.00 1.22 0.00 70 1021.9
20260902155519 21 135 4.8 11.3 0.00 1.22 0.00 73 1021.9
20260902155019 21 104 6.4 12.9 0.00 1.22 0.00 73 1022.0
20260902154521 21 86 6.4 14.5 0.00 1.22 0.00 72 1022.1
20260902154021 21 102 4.8 12.9 0.00 1.22 0.00 72 1022.2
20260902153541 21 110 4.8 11.3 0.00 1.22 0.00 73 1022.3
20260902153020 21 110 6.4 12.9 0.00 1.22 0.00 74 1022.4
20260902152520 21 124 6.4 11.3 0.00 1.22 0.00 74 1022.3
20260902152020 21 107 6.4 12.9 0.00 1.22 0.00 76 1022.3
20260902151519 21 136 4.8 12.9 0.00 1.22 0.00 78 1022.4
20260902151019 21 82 4.8 12.9 0.00 1.22 0.00 77 1022.3
20260902150521 21 81 4.8 11.3 0.00 1.22 0.00 78 1022.4
20260902150021 21 68 4.8 12.9 0.00 1.22 0.00 78 1022.2
20260902145521 21 118 4.8 12.9 0.00 1.22 0.00 78 1022.3
20260902145046 21 97 4.8 12.9 0.00 1.22 0.00 79 1022.1
20260902144520 21 114 4.8 14.5 0.00 1.22 0.00 80 1022.1
20260902144020 20 119 4.8 16.1 0.00 1.22 0.00 81 1022.0
20260902143519 20 99 4.8 16.1 0.00 1.22 0.00 82 1022.0
20260902143019 20 92 3.2 14.5 0.00 1.22 0.00 82 1022.0
20260902142521 20 129 6.4 14.5 0.00 1.22 0.00 82 1022.1
20260902142021 20 115 6.4 16.1 0.00 1.22 0.00 82 1021.7
20260902141519 20 118 6.4 16.1 0.00 1.22 0.00 83 1021.7
20260902141020 20 105 8.0 16.1 0.00 1.22 0.00 85 1021.6
20260902140520 20 102 6.4 17.7 0.00 1.22 0.00 85 1021.6
20260902140020 20 111 6.4 17.7 0.00 1.22 0.00 87 1021.5
20260902135520 20 117 4.8 16.1 0.00 1.22 0.00 88 1021.5
20260902135020 20 88 4.8 20.9 0.00 1.22 0.00 90 1021.4
20260902134519 19 98 4.8 14.5 0.00 1.22 0.00 92 1021.4
20260902134026 19 101 4.8 11.3 0.00 1.22 0.00 92 1021.3
20260902133541 19 107 6.4 11.3 0.00 1.22 0.00 93 1021.3
20260902133021 19 81 4.8 11.3 0.00 1.24 0.00 96 1021.3
20260902132540 18 93 1.6 4.8 0.00 1.27 0.00 98 1021.3
20260902132041 18 79 1.6 3.2 0.00 1.27 0.00 98 1021.3
20260902131540 18 104 1.6 3.2 0.00 1.30 0.00 99 1021.5
20260902131020 18 88 1.6 4.8 0.00 1.32 0.00 99 1021.5
20260902130520 18 0.0 0.0 0.00 1.32 0.00 99 1021.6
20260902130019 17 340 0.0 3.2 0.00 1.35 0.00 99 1021.6
20260902125521 17 289 0.0 3.2 0.00 1.37 0.00 99 1021.6
20260902125021 17 186 0.0 1.6 0.00 1.40 0.00 99 1021.6
20260902124520 17 0.0 0.0 0.00 1.42 0.00 99 1021.8
20260902124020 17 186 0.0 1.6 0.00 1.45 0.00 99 1021.8
20260902123520 17 187 0.0 1.6 0.00 1.50 0.00 99 1021.8
20260902123022 17 0.0 0.0 0.00 1.52 0.00 99 1021.7
20260902122540 17 0.0 0.0 0.00 1.55 0.00 99 1021.7
20260902122020 17 0.0 0.0 0.00 1.55 0.00 99 1021.9
20260902121519 17 0.0 0.0 0.00 1.55 0.00 99 1021.9
20260902121039 17 0.0 0.0 0.00 1.55 0.00 99 1021.9
20260902120521 17 0.0 0.0 0.00 1.55 0.00 99 1022.0
20260902120041 16 0.0 0.0 0.00 1.55 0.00 99 1021.9
20260902115519 16 0.0 0.0 0.00 1.55 0.00 99 1021.9
20260902115021 16 0.0 0.0 0.00 1.55 0.00 99 1022.0
20260902114521 16 186 0.0 1.6 0.00 1.55 0.00 99 1022.0
20260902114020 16 0.0 0.0 0.00 1.55 0.00 99 1022.0
20260902113522 16 0.0 0.0 0.00 1.55 0.00 99 1022.0
20260902113020 16 0.0 0.0 0.00 1.55 0.00 99 1021.9
20260902112540 16 0.0 0.0 0.00 1.55 0.00 99 1021.8
20260902112019 16 0.0 0.0 0.00 1.55 0.00 99 1021.9
20260902111539 16 0.0 0.0 0.00 1.55 0.00 99 1021.8
20260902111019 16 0.0 0.0 0.00 1.55 0.00 99 1021.7
20260902110519 16 0.0 0.0 0.00 1.55 0.00 99 1021.7
20260902110039 16 0.0 0.0 0.00 1.55 0.00 99 1021.4
20260902105539 16 0.0 0.0 0.00 1.55 0.00 99 1021.4
20260902105020 16 0.0 0.0 0.00 1.55 0.00 99 1021.3
20260902104520 16 0.0 0.0 0.00 1.55 0.00 99 1021.3
20260902104020 16 0.0 0.0 0.00 1.55 0.00 99 1021.2
20260902103519 16 0.0 0.0 0.00 1.55 0.00 99 1021.3
20260902103019 16 0.0 0.0 0.00 1.55 0.00 99 1021.3
20260902102519 16 0.0 0.0 0.00 1.55 0.00 99 1021.2
20260902102019 16 0.0 0.0 0.00 1.55 0.00 99 1021.1
20260902101518 16 0.0 0.0 0.00 1.55 0.00 99 1021.1
20260902101020 16 0.0 0.0 0.00 1.55 0.00 99 1021.0
20260902100601 15 0.0 0.0 0.00 1.55 0.00 99 1020.9
20260902100019 15 0.0 0.0 0.00 1.55 0.00 99 1020.9
20260902095519 16 0.0 0.0 0.00 1.55 0.00 99 1020.9
20260902095019 15 0.0 0.0 0.00 1.55 0.00 99 1020.9
20260902094524 15 0.0 0.0 0.00 1.55 0.00 99 1020.8
20260902094021 15 0.0 0.0 0.00 1.55 0.00 99 1020.6
20260902093601 15 0.0 0.0 0.00 1.55 0.00 99 1020.7
20260902093021 15 0.0 0.0 0.00 1.55 0.00 99 1020.6
20260902092520 15 0.0 0.0 0.00 1.55 0.00 99 1020.5
20260902092020 15 0.0 0.0 0.00 1.55 0.00 99 1020.5
20260902091519 15 0.0 0.0 0.00 1.55 0.00 99 1020.7
20260902091019 15 0.0 0.0 0.00 1.55 0.00 99 1020.8
20260902090519 15 0.0 0.0 0.00 1.55 0.00 99 1020.5
20260902090021 15 0.0 0.0 0.00 1.55 0.00 99 1020.5
20260902085521 16 0.0 0.0 0.00 1.55 0.00 99 1020.6
20260902085020 16 0.0 0.0 0.00 1.55 0.00 99 1020.5
20260902084541 16 0.0 0.0 0.00 1.55 0.00 99 1020.4
20260902084020 16 0.0 0.0 0.00 1.55 0.00 99 1020.4
20260902083520 16 186 0.0 1.6 0.00 1.55 0.00 99 1020.4
20260902083019 16 0.0 0.0 0.00 1.55 0.00 99 1020.3
20260902082519 16 0.0 0.0 0.00 1.55 0.00 99 1020.4
20260902082021 16 0.0 0.0 0.00 1.55 0.00 99 1020.5
20260902081519 16 0.0 0.0 0.00 1.55 0.00 99 1020.4